KINEIS-4A

Last updated on Mon Jun 22 2026 00:03:00 GMT+0000 (Coordinated Universal Time)

1 63303U 25056D 26172.58174075 .00001078 00000+0 17840-3 0 9996 2 63303 97.9115 296.5078 0000277 227.5056 132.6128 14.72266628 67773
UTC large
Height (km)
Speed (km/s)
/
Latitude / Longitude
Inclination (degrees)
Orbital Period (minutes)
Azimuth
Elevation
Range (km)
Doppler Factor

Next 0 passes for location: London (51.5072 / 0.1276)

No passes found over London.
KINEIS-4A